Regional Weather Roundup
Issued by NWS Newport/Morehead, NC

Current Version | Previous Version | Graphics & Text | Print | Product List | Glossary Off
Versions: 1 2 3 4 5 6 7 8 9 10 11 12 13 14 15 16 17 18 19 20 21 22 23 24 25 26 27 28 29 30 31 32 33 34 35 36 37 38 39 40 41 42 43 44 45 46 47 48 49 50

000
ASUS42 KMHX 252214
RWRMHX
WEATHER ROUNDUP FOR EASTERN NORTH CAROLINA
NATIONAL WEATHER SERVICE NEWPORT/MOREHEAD CITY NC
600 PM EDT TUE JUL 25 2017

NOTE: "FAIR" INDICATES FEW OR NO CLOUDS BELOW 12,000 FEET
WITH NO SIGNIFICANT WEATHER AND/OR OBSTRUCTIONS TO VISIBILITY

NCZ015>017-031-032-045>047-102-103-252300-
NORTH COAST

CITY           SKY/WX    TMP DP  RH WIND       PRES   REMARKS
EDENTON        MOSUNNY   83  72  68 E12       30.08R
ELIZABETH CITY MOSUNNY   82  68  62 NE12      30.08R
KITTY HAWK     MOCLDY    79  64  60 NE3       30.08S
MANTEO         CLOUDY    79  65  60 NE12      30.09S

$$

NCZ045>047-081-094-103-104-252300-
CENTRAL COAST

CITY           SKY/WX    TMP DP  RH WIND       PRES   REMARKS
FRISCO         CLOUDY    79  69  71 NE10G18   30.08S

$$

NCZ095-097-098-100-101-252300-
SOUTHERN COAST

CITY           SKY/WX    TMP DP  RH WIND       PRES   REMARKS
BEAUFORT       MOSUNNY   85  78  80 W8        30.03F
CEDAR ISLAND   NOT AVBL
JACKSONVILLE   MOSUNNY   88  77  69 S7        30.01F HX 100
PINEY ISLAND   HVY RAIN N/A N/A N/A E8        30.06S VSB 3/4
WILMINGTON     CLOUDY    84  76  76 NW6       30.03R THUNDER


$$

NCZ011>013-027>030-043-044-078>080-089-090>093-098-252300-
COASTAL PLAIN

CITY           SKY/WX    TMP DP  RH WIND       PRES   REMARKS
AHOSKIE          N/A     85  71  64 NE3       30.06S
CLINTON        SUNNY     92  71  50 N3        30.02F
ELIZABETHTOWN  NOT AVBL
GOLDSBORO      PTSUNNY   92  70  48 N8        30.01F
GREENVILLE     MOSUNNY   88  75  66 E7        30.06S
HAVELOCK       CLOUDY    84  75  74 E8        30.05F
KENANSVILLE    MOSUNNY   91  70  49 N7        30.02F
KINSTON        MOSUNNY   90  72  55 E7        30.03F
NEW BERN       PTSUNNY   83  75  77 E8        30.05R
RICHLANDS      SUNNY     89  78  70 S7        30.02F HX 103
ROCKY MOUNT    MOSUNNY   88  74  63 E3        30.04F
WASHINGTON     MOSUNNY   85  73  65 E9        30.05S
WHITEVILLE     MOSUNNY   92  73  53 CALM      30.01S HX 101

$$

AMZ130-135-150-152-154-156-158-170-250-252-270-ANZ085-086-088-633-658-670-252300-
MARINE OBSERVATIONS

STATION/POSITION TIME  TEMP    WIND        PRES    WAVE   SWELL
                       AIR SEA DIR/SP/G            HT/PER HT/PER
                 (UTC) (F)     (DEG/KT/KT) (MB)    (FT/S) (FT/S)
CHESAPEAKE LIGHT NOT AVBL
64 E VA BEACH    2150   76 78  360/ 12/ 14 1019.1    3/ 5   2/ 7
DUCK             2148   75 76   30/ 11/ 13 1018.5
2 E DUCK         2200      75                N/A     2/ 6
OREGON INLET     2148           30/  8/ 10 1018.7
13E OREGON INLT  2148      74                N/A     4/ 4   2/ 7
HATTERAS CG      2148   78 79   60/ 11/ 15 1018.3
DIAMOND BUOY     2150   80 84   20/ 14/ 16 1017.7    3/ 7   2/ 7
CAPE LOOKOUT     2200   83     220/  6/  7 1017.0
BEAUFORT LAB     2148   85 82  200/  5/  6 1016.7
30 SE NEW RVR IN 2108   82 84  220/ 14/ 16 1017.4
30 SE NEW RVR IN 2143      84                N/A     4/ 6
27 SE WRIGHTSVLE 2108   83 84  210/ 12/ 17 1017.3
5 SE WRIGHTSVLE  2108   82 83  200/ 10/ 16 1017.0
225 S CAPE HAT   2150   82 83  190/  8/ 10 1019.3    4/ 6   3/ 6
41 SE CHARLESTON 2140   81 83  220/ 12/ 14 1016.9

$$




USA.gov is the U.S. government's official web portal to all federal, state and local government web resources and services.